Lexington Weather

Lexington, Massachusetts, USA

40°F
4/22/2024 7:53am 
  • Lexington Conditions: Clear
  • Temperature: 39.9°F / 4.4°CWarmer 2.9°F than last hour.
  • Dew Point: 28.8°FDecreased 0.1°Fsince last hour.
  • Relative Humidity: 64%Decreased 8.0% since last hour.
  • Wind: Calm, 10-min avg: Calm, gust: 2 mph
  • Barometer: 29.95 inRising 0.02  inHg/hr Rising Slowly
  • Visibility: 10 miles
  • Rain Today: 0.00 in
  •   

Regional Weather Roundup
for Boston, MA

        
000
ASUS41 KBOX 202110
RWRBOX

REGIONAL WEATHER ROUNDUP
NATIONAL WEATHER SERVICE BOSTON/NORTON MA
500 PM EDT SAT APR 20 2024

NOTE:  "FAIR" INDICATES FEW OR NO CLOUDS BELOW 12,000 FEET WITH NO 
SIGNIFICANT WEATHER AND/OR OBSTRUCTIONS TO VISIBILITY.

MAZALL-202200-
EASTERN MASSACHUSETTS
  
CITY           SKY/WX    TMP DP  RH WIND       PRES   REMARKS
BOSTON         CLOUDY    58  49  72 VRB6      29.79R                  
BEVERLY        CLOUDY    58  45  62 NW10G16   29.78S                  
LAWRENCE       MOSUNNY   60  38  43 W12       29.80S                  
BEDFORD        PTSUNNY   59  39  47 NW13      29.79R                  
NORWOOD        RAIN      59  49  69 W9        29.80R                  
MARSHFIELD     PTSUNNY   57  50  77 SW7       29.78F                  
PLYMOUTH       PTSUNNY   56  50  80 SW7       29.79F                  
TAUNTON        PTSUNNY   60  50  69 VRB5      29.79S                  
NEW BEDFORD    PTSUNNY   57  51  80 S9        29.80F                  
$$

MAZALL-202200-
CAPE COD AND THE ISLANDS
  
CITY           SKY/WX    TMP DP  RH WIND       PRES   REMARKS
FALMOUTH       CLOUDY    48  48 100 W10       29.82S                  
HYANNIS        PTSUNNY   51  49  92 SW6       29.79F                  
CHATHAM        CLOUDY    51  50  96 SW6       29.80F                  
PROVINCETOWN   PTSUNNY   51  51 100 SW7       29.80F                  
NANTUCKET      CLOUDY    47  47 100 W12       29.82S                  
MARTHAS VNYRD  CLOUDY    50  49  96 W8        29.81F                  
$$
 
MAZALL-202200-
CENTRAL AND WESTERN MASSACHUSETTS
  
CITY           SKY/WX    TMP DP  RH WIND       PRES   REMARKS
WORCESTER      CLOUDY    56  34  43 NW9       29.79S                  
FITCHBURG      MOSUNNY   62  30  29 NW8       29.80F                  
ORANGE         CLOUDY    58  30  34 NW10      29.80F                  
SPRINGFIELD    PTSUNNY   63  34  34 W8        29.77F                  
WESTFIELD      PTSUNNY   62  36  37 VRB6      29.80F                  
NORTH ADAMS    CLOUDY    56  30  37 W21G30    29.84R                  
PITTSFIELD     CLOUDY    54  28  36 NW8G24    29.81R                  
$$
 
RIZALL-202200-
RHODE ISLAND
  
CITY           SKY/WX    TMP DP  RH WIND       PRES   REMARKS
PROVIDENCE     PTSUNNY   58  50  75 S9        29.80F                  
NEWPORT        PTSUNNY   54  49  83 SW6       29.80S                  
BLOCK ISLAND   PTSUNNY   52  48  86 W10       29.84S                  
SMITHFIELD     PTSUNNY   58  47  66 W7        29.80S                  
WESTERLY       PTSUNNY   54  48  80 VRB6      29.82S                  
$$
 
CTZALL-202200-
CONNECTICUT
  
CITY           SKY/WX    TMP DP  RH WIND       PRES   REMARKS
BRADLEY INTL   LGT RAIN  63  39  41 NW10      29.80F                  
HARTFORD       PTSUNNY   64  32  30 W13G22    29.79F                  
PLAINVILLE     FAIR      65  31  28 VRB5      29.79F                  
BRIDGEPORT     CLOUDY    60  46  59 SW5       29.81S                  
DANBURY        PTSUNNY   64  33  31 MISG      29.81F                  
GROTON         PTSUNNY   56  50  80 SW8       29.82S                  
NEW HAVEN      PTSUNNY   60  48  64 S3        29.82S                  
CHESTER        PTSUNNY   59  48  67 SW7       29.82S                  
MERIDEN        PTSUNNY   63  33  32 MISG      29.80F                  
WILLIMANTIC    MOSUNNY   61  43  51 W10G18    29.80F                  
OXFORD         CLOUDY    59  35  40 W8        29.82F                  
$$

MEZ002-015-021-024-NHZ003-005-008-011-012-014-VTZ005-008-202200-
NORTHERN NEW ENGLAND
  
CITY           SKY/WX    TMP DP  RH WIND       PRES   REMARKS
PORTLAND ME    PTSUNNY   53  48  83 SE9       29.78F                  
BANGOR ME      PTSUNNY   50  45  83 VRB3      29.77F                  
CONCORD NH     MOSUNNY   60  34  37 NW9       29.77F                  
MANCHESTER NH  MOSUNNY   63  32  31 W16G22    29.77F                  
NASHUA NH      PTSUNNY   62  31  31 W8G22     29.79F                  
PORTSMOUTH NH  PTSUNNY   62  39  43 W9        29.76F                  
JAFFREY NH     PTSUNNY   59  27  29 VRB6G22   29.79F                  
KEENE NH       PTSUNNY   59  27  29 W8G17     29.79F                  
BURLINGTON VT  LGT RAIN  47  32  56 W8G20     29.82R                  
MT. WASHINGTON PTSUNNY   25  18  74 W37         N/A  WCI   6          
$$

NYZ052-076-202200-
EASTERN NEW YORK
  
CITY           SKY/WX    TMP DP  RH WIND       PRES   REMARKS
ALBANY         CLOUDY    50  36  58 W24G36    29.92R                  
NEW YORK CITY  PTSUNNY   67  30  25 W17G28    29.81F                  
$$
 
ANZALL-202200-
MARINE OBSERVATIONS
  
STATION/POSITION TIME  TEMP    WIND        PRES    VSBY  WAVE
                       AIR SEA DIR/SP/G                  HT/PER
                 (UTC) (F)     (DEG/KT/KT) (MB)    (MI)  (FT/S)
BOSTON BUOY      2050   48     160/  2/  4 1008.3F         1/11
BUZZARDS BAY     2000   46     250/ 11/ 12 1010.5F
NANTUCKET SOUND  2050   48 47  250/  8/  8 1009.2S         1/ 3
MASS BAY-STELLWA 1904   47 45  190/  6/  8 1009.7F  1 7/8  2/ 8
ISLE OF SHOALS   2000   50     170/ 10/ 10 1008.0F
S OF BLOCK IS    2056      45                N/A           4/ 8
$$

......................KEY.........................
  SKY/WX - SKY CONDITION/PRESENT WEATHER
  TMP    - TEMPERATURE IN FAHRENHEIT
  DWPT   - DEWPOINT IN FAHRENHEIT
  RH     - RELATIVE HUMIDITY IN PERCENT
  WIND   - DIRECTION AND SPEED IN MPH
  PRES   - MEAN SEA LEVEL PRESSURE IN INCHES OF HG
  WCI    - WIND CHILL INDEX
  VSB    - VISIBILITY IN MILES
  HX     - HEAT INDEX
  TC     - TEMPERATURE IN CELSIUS
  VRB    - VARIABLE WIND DIRECTION
  N/A    - NOT AVAILABLE
  
      

Other recent Regional Weather Roundups

Mon Apr 22, 7:10am EDT

Mon Apr 22, 6:10am EDT

Mon Apr 22, 5:10am EDT

Mon Apr 22, 4:10am EDT

Mon Apr 22, 3:10am EDT

Mon Apr 22, 2:10am EDT

Mon Apr 22, 1:10am EDT

Mon Apr 22, 12:10am EDT

Sun Apr 21, 11:10pm EDT

Sun Apr 21, 10:10pm EDT

Sun Apr 21, 9:10pm EDT

Sun Apr 21, 8:10pm EDT

Sun Apr 21, 7:10pm EDT

Sun Apr 21, 6:10pm EDT

Sun Apr 21, 5:10pm EDT

Sun Apr 21, 4:10pm EDT

Sun Apr 21, 3:10pm EDT

Sun Apr 21, 2:10pm EDT

Sun Apr 21, 1:10pm EDT

Sun Apr 21, 12:10pm EDT

Sun Apr 21, 11:10am EDT

Sun Apr 21, 10:10am EDT

Sun Apr 21, 9:10am EDT

Sun Apr 21, 8:10am EDT

Sun Apr 21, 7:10am EDT

Sun Apr 21, 6:10am EDT

Sun Apr 21, 5:10am EDT

Sun Apr 21, 4:10am EDT

Sun Apr 21, 3:10am EDT

Sun Apr 21, 2:10am EDT

Sun Apr 21, 1:10am EDT

Sun Apr 21, 12:10am EDT

Sat Apr 20, 11:10pm EDT

Sat Apr 20, 10:10pm EDT

Sat Apr 20, 9:10pm EDT

Sat Apr 20, 8:10pm EDT

Sat Apr 20, 7:10pm EDT

Sat Apr 20, 6:10pm EDT

Sat Apr 20, 4:10pm EDT

Sat Apr 20, 3:10pm EDT

Sat Apr 20, 2:10pm EDT

Sat Apr 20, 1:10pm EDT

Sat Apr 20, 12:10pm EDT

Sat Apr 20, 11:10am EDT

Sat Apr 20, 10:10am EDT

Sat Apr 20, 9:10am EDT

Sat Apr 20, 8:10am EDT

Sat Apr 20, 7:10am EDT

Sat Apr 20, 6:10am EDT

Sat Apr 20, 5:10am EDT

Sat Apr 20, 4:10am EDT

Sat Apr 20, 3:10am EDT

Sat Apr 20, 2:10am EDT

Sat Apr 20, 1:10am EDT

Sat Apr 20, 12:10am EDT

Fri Apr 19, 11:10pm EDT

Fri Apr 19, 10:10pm EDT

Fri Apr 19, 9:10pm EDT

Fri Apr 19, 8:10pm EDT

Fri Apr 19, 7:10pm EDT

Fri Apr 19, 6:10pm EDT

Fri Apr 19, 5:10pm EDT

Fri Apr 19, 4:10pm EDT

Fri Apr 19, 3:10pm EDT

Fri Apr 19, 2:10pm EDT

Fri Apr 19, 1:10pm EDT

Fri Apr 19, 12:10pm EDT

Fri Apr 19, 11:10am EDT

Fri Apr 19, 10:10am EDT

Fri Apr 19, 9:10am EDT

Fri Apr 19, 8:10am EDT

Fri Apr 19, 7:10am EDT

Fri Apr 19, 6:10am EDT

Fri Apr 19, 5:10am EDT

Fri Apr 19, 4:10am EDT

Fri Apr 19, 3:10am EDT

Fri Apr 19, 2:10am EDT

Fri Apr 19, 1:10am EDT

Fri Apr 19, 12:10am EDT

Thu Apr 18, 11:10pm EDT

Thu Apr 18, 10:10pm EDT

Thu Apr 18, 9:10pm EDT

Thu Apr 18, 8:10pm EDT

Thu Apr 18, 7:10pm EDT

Thu Apr 18, 6:10pm EDT

Thu Apr 18, 5:10pm EDT

Thu Apr 18, 4:10pm EDT

Thu Apr 18, 3:10pm EDT

Thu Apr 18, 2:10pm EDT

Thu Apr 18, 1:10pm EDT

Thu Apr 18, 12:10pm EDT

Thu Apr 18, 11:10am EDT

Thu Apr 18, 10:10am EDT

Thu Apr 18, 9:10am EDT

Thu Apr 18, 8:10am EDT

Thu Apr 18, 7:10am EDT

Thu Apr 18, 6:10am EDT

Thu Apr 18, 5:10am EDT

Thu Apr 18, 4:10am EDT

Thu Apr 18, 3:10am EDT

Thu Apr 18, 2:10am EDT

Thu Apr 18, 1:10am EDT

Thu Apr 18, 12:10am EDT

Wed Apr 17, 11:10pm EDT

Wed Apr 17, 10:10pm EDT

Wed Apr 17, 9:10pm EDT

Wed Apr 17, 8:10pm EDT

Wed Apr 17, 7:10pm EDT

Wed Apr 17, 6:10pm EDT

Wed Apr 17, 5:10pm EDT

Wed Apr 17, 4:10pm EDT

Wed Apr 17, 3:10pm EDT

Wed Apr 17, 2:10pm EDT

Wed Apr 17, 1:10pm EDT

Wed Apr 17, 12:10pm EDT

Wed Apr 17, 11:10am EDT

Wed Apr 17, 10:10am EDT

Wed Apr 17, 9:10am EDT

Wed Apr 17, 8:10am EDT

Wed Apr 17, 7:10am EDT

Wed Apr 17, 6:10am EDT

Wed Apr 17, 5:10am EDT

Wed Apr 17, 4:10am EDT

Wed Apr 17, 3:10am EDT

Wed Apr 17, 2:10am EDT

Wed Apr 17, 1:10am EDT

Wed Apr 17, 12:10am EDT

Tue Apr 16, 11:10pm EDT

Tue Apr 16, 10:10pm EDT

Tue Apr 16, 9:10pm EDT

Tue Apr 16, 8:10pm EDT

Tue Apr 16, 7:10pm EDT

Tue Apr 16, 6:10pm EDT

Tue Apr 16, 5:10pm EDT

Tue Apr 16, 4:10pm EDT

Tue Apr 16, 3:10pm EDT

Tue Apr 16, 2:10pm EDT

Tue Apr 16, 1:10pm EDT

Tue Apr 16, 12:10pm EDT

Tue Apr 16, 11:10am EDT

Tue Apr 16, 10:10am EDT

Tue Apr 16, 9:10am EDT

Tue Apr 16, 8:10am EDT

Tue Apr 16, 7:10am EDT

Tue Apr 16, 6:10am EDT

Tue Apr 16, 5:10am EDT

Tue Apr 16, 4:10am EDT

Tue Apr 16, 3:10am EDT

Tue Apr 16, 2:10am EDT

Tue Apr 16, 1:10am EDT

Tue Apr 16, 12:10am EDT

Mon Apr 15, 11:10pm EDT

Mon Apr 15, 10:10pm EDT

Mon Apr 15, 9:10pm EDT

Mon Apr 15, 8:10pm EDT

Mon Apr 15, 7:10pm EDT

Mon Apr 15, 6:10pm EDT

Mon Apr 15, 5:10pm EDT

Mon Apr 15, 4:10pm EDT

Mon Apr 15, 3:10pm EDT

Mon Apr 15, 2:10pm EDT

Mon Apr 15, 1:10pm EDT

Mon Apr 15, 12:10pm EDT

Mon Apr 15, 11:10am EDT

Mon Apr 15, 10:10am EDT

Mon Apr 15, 9:10am EDT

Mon Apr 15, 8:10am EDT